|
NORAD ID: 10563 Int'l Code: 1977-121E
Perigee: 877.1 km
Apogee: 1,037.8 km
Inclination: 65.8 °
Period: 104.1 minutes
Semi major axis: 7328 km
Launch date: December 21, 1977
Source: Commonwealth of Independent States (former USSR) (CIS)
Note: This is SATELLITE DEBRIS
Two Line Element Set (TLE):
1 10563U 77121E 13139.21118095 .00000821 00000-0 77754-3 0 5469
2 10563 065.8499 161.9770 0109632 199.4993 230.5030 13.83838902774965
Source:
NASA's NSSDC Master Catalog entry for COSMOS 970 DEB
|